OBJECT AC, 69006

Orbit data source: Space-Track

You're viewing an Uncataloged Satellite

Recently launched and/or uncataloged satellites may have evolving metadata. Metadata may include but not limited to: Owner, Maufacturer, Bus, Motor, and Mission.

OBJECT AC, 69006 is a satellite in SSO that was launched on Sun, 03 May 2026 UTC launched from the Air Force Western Test Range (AFWTR). Unknown objects in Earth's orbit typically refer to objects detected orbiting the Earth but have not yet been identified or cataloged. These objects could be anything from previously untracked satellites, spent rocket stages, debris from satellite collisions, or even natural meteoroids temporarily captured by Earth's gravity.

Loading next visibility...
Identifier
69006, 2026-100AC
Orbit
SSO
Country
Flag of TBDTBD
Related business
None
Manufacturer
Unknown
Mission
Operational spacecraft
Bus & Motor
Unknown
Mass
Unknown
Launch date (UTC)
2026-05-03 (1 week ago)
Launch vehicle
Unknown
Launch site
Air Force Western Test Range (AFWTR)
Object type
Unknown
Shape & HBR
Unknown
Radar Cross Section
RCS unknown

Expand to show TLE details & history
Last TLE update: 8 hours ago

TLE from 8 hours ago
0 OBJECT AC
1 69006U 26100AC  26130.17940318  .00002384  00000-0  11357-3 0  9992
2 69006  97.4070  28.6800 0006309 136.9931 223.1798 15.20075871  1036
Epoch: 2026-05-10T04:18Z
TLE epoch observation values (Epoch: 2026-05-10T04:18:20.434Z)
Latitude
-0.00007°
Longitude
96.10867°
Altitude
511.871 km
Speed
7.606 km/s
True Right ascension
01h 54m 43s
True Declination
0° 00' 00"
Sunlit
Object was in daylight at epoch
Visualization orbit readout
Latitude
Unknown
Longitude
Unknown
Altitude
Unknown
Speed
Unknown
Apparent Right ascension
Unknown
Apparent Declination
Unknown
Sunlit
N/A
Visualization observer readout
Local Sidereal Time
20:32:16
Azimuth
Unknown
Elevation
Unknown
Doppler factor
Unknown
Orbital elements
Apogee altitude
506.918 km
Perigee altitude
498.236 km
Semi-major axis
6,880.714 km
Eccentricity
0.00063
Inclination
97.407°
RAAN
28.68°
Arg. of periapsis
136.9931°
True anomaly
223.13036°
Mean anomaly
223.1798°
Eccentric anomaly
223.15508°
Mean motion
3.80271 °/min
Orbital period
94.67 mins
BSTAR
0.00011357
Loading maneuver chart data...
Computing Atmospheric mass density...
Loading historical data...
Loading historical data...
Loading historical data...
Loading historical data...
Loading historical data...
Loading historical data...
Loading historical data...

Documentation

Showing up to 5 results
|